Regional Weather Roundup
Issued by NWS

Home | Current Version | Previous Version | Text Only | Print | Product List | Glossary On
Versions: 1 2 3 4 5 6 7 8 9 10 11 12 13 14 15 16 17 18 19 20 21 22 23 24 25 26 27 28 29 30 31 32 33 34 35 36 37 38 39 40 41 42 43 44 45 46 47 48 49 50
000
ASUS43 KOAX 210110
RWRNE

WEATHER ROUNDUP FOR NEBRASKA
NATIONAL WEATHER SERVICE OMAHA NE
800 PM CDT SUN MAY 20 2018

NOTES: SATELLITE DATA IS BEING USED TO AUGMENT CLOUD COVER ABOVE
       12000 FEET.
       "FAIR" INDICATES FEW OR NO CLOUDS BELOW 12,000 FEET WITH NO
       SIGNIFICANT WEATHER AND/OR OBSTRUCTIONS TO VISIBILITY.


NEZ001>004-019>022-054>056-210200-
NEBRASKA PANHANDLE

CITY           SKY/WX    TMP DP  RH WIND       PRES   REMARKS
SCOTTSBLUFF    MOSUNNY   61  45  55 SE10      30.11S
ALLIANCE       MOSUNNY   58  38  47 SE6       30.11S
CHADRON        PTSUNNY   60  40  47 E9        30.09F
GORDON         FAIR      58  41  53 CALM      30.11S
KIMBALL        CLOUDY    55  44  64 S12       30.15S
SIDNEY         CLOUDY    57  43  59 S10       30.15R
$$

NEZ057>060-069>072-079>082-210200-
SOUTHWEST NEBRASKA

CITY           SKY/WX    TMP DP  RH WIND       PRES   REMARKS
NORTH PLATTE   CLOUDY    63  47  55 E3        30.11R
IMPERIAL       CLOUDY    60  47  61 S5        30.14R
LEXINGTON      PTCLDY    57  52  84 E6        30.11S
MCCOOK         CLOUDY    59  51  75 E3        30.12R
OGALLALA       CLOUDY    62  46  55 S5        30.13R
$$

NEZ005>010-023>029-035>040-094-210200-
NORTH CENTRAL NEBRASKA

CITY           SKY/WX    TMP DP  RH WIND       PRES   REMARKS
VALENTINE      CLOUDY    58  43  57 E8        30.11S
AINSWORTH      CLOUDY    56  48  75 E6        30.11S
BROKEN BOW     CLOUDY    57  51  80 E6        30.10S
O`NEILL        CLOUDY    57  50  77 E5        30.11F
ORD            CLOUDY    55  50  83 NE5       30.09F
THEDFORD       PTCLDY    61  42  49 N5        30.11S
$$

NEZ041-046>049-061>064-073>077-083>087-210200-
SOUTH CENTRAL NEBRASKA

CITY           SKY/WX    TMP DP  RH WIND       PRES   REMARKS
GRAND ISLAND   CLOUDY    54  51  90 N6        30.11S
AURORA         CLOUDY    53  53 100 N7        30.10S
HASTINGS       CLOUDY    55  52  89 N7        30.10F
HEBRON         CLOUDY    55  54  94 N7        30.08S
HOLDREGE       CLOUDY    55  52  90 N3        30.11S
KEARNEY        CLOUDY    55  51  86 NE5       30.11F
YORK           MOCLDY    54  54 100 N10       30.09F FOG
$$

NEZ011>018-030>034-042>045-210200-
NORTHEAST NEBRASKA

CITY           SKY/WX    TMP DP  RH WIND       PRES   REMARKS
NORFOLK        CLOUDY    52  50  93 N7        30.10F
ALBION         CLOUDY    53  50  89 N3        30.11S
BLAIR          CLOUDY    56  55  96 N12       30.05F FOG
COLUMBUS       CLOUDY    52  51  97 N8        30.10F FOG
FREMONT        DRIZZLE   56  55  97 NW6       30.08S
TEKAMAH        LGT RAIN  54  54 100 N10       30.07F FOG
WAYNE          DRIZZLE   53  52  96 N3        30.10F
$$

NEZ050>053-065>068-078-088>093-210200-
SOUTHEAST NEBRASKA

CITY           SKY/WX    TMP DP  RH WIND       PRES   REMARKS
LINCOLN        CLOUDY    55  53  93 N9        30.08S FOG
OMAHA EPPLEY   CLOUDY    58  55  90 N8        30.06R
BEATRICE       CLOUDY    57  55  95 N9        30.07R
FALLS CITY     CLOUDY    68  63  84 SE7       30.01S
NEBRASKA CITY  CLOUDY    60  58  94 N10       30.04S
PLATTSMOUTH    CLOUDY    58  55  89 N8        30.05S
$$

NEZ044-045-051>053-067-210200-
OMAHA AREA

CITY           SKY/WX    TMP DP  RH WIND       PRES   REMARKS
OMAHA EPPLEY   CLOUDY    58  55  90 N8        30.06R
BLAIR          CLOUDY    56  55  96 N12       30.05F FOG
FREMONT        DRIZZLE   56  55  97 NW6       30.08S
MILLARD        CLOUDY    58  55  89 N5        30.06F
OFFUTT AFB     CLOUDY    58  55  92 N7        30.04F
PLATTSMOUTH    CLOUDY    58  55  89 N8        30.05S
WAHOO          DRIZZLE   56  53  91 NW7       30.08R
$$



USA.gov is the U.S. government's official web portal to all federal, state and local government web resources and services.